Terminal Aerodrome Forecast
Issued by NWS St Louis, MO

Home | Current Version | Previous Version | Graphics & Text | Print | Product List | Glossary On
Versions: 1 2 3 4 5 6 7 8 9 10 11 12 13 14 15 16 17 18 19 20 21 22 23
000
FTUS43 KLSX 221511 AAB
TAFSTL
TAF AMD
KSTL 221511Z 2215/2318 04011KT P6SM -RA OVC060
     FM221800 03013G19KT P6SM VCSH OVC060
     FM230000 02010KT P6SM OVC070
     FM230600 02007KT P6SM SCT110=

USA.gov is the U.S. government's official web portal to all federal, state and local government web resources and services.